Regional Weather Roundup
Issued by NWS Pendleton, OR

Current Version | Previous Version | Text Only | Print | Product List | Glossary On
Versions: 1 2 3 4 5 6 7 8 9 10 11 12 13 14 15 16 17 18 19 20 21 22 23 24 25 26 27 28 29 30 31 32 33 34 35 36 37 38 39 40 41 42 43 44 45 46 47 48 49 50
000
ASUS46 KPDT 060810
RWRPDT
PENDLETON REGIONAL WEATHER ROUNDUP
NATIONAL WEATHER SERVICE PENDLETON OREGON
100 AM PDT MON JUL 6 2015

NOTE: FAIR INDICATES FEW OR NO CLOUDS BELOW 12,000 FEET WITH NO
SIGNIFICANT WEATHER AND/OR OBSTRUCTIONS TO VISIBILITY.

# INDICATES UNOFFICIAL STATION AND DATA

WAZ520-060910-
EAST SLOPES OF WASHINGTON CASCADES

CITY            SKY/WX      TMP DP  RH  WIND    PRES   REMARKS
#BUMPING DAM    N/A         65  N/A N/A E7      N/A
#CLE ELUM HS    N/A         65  50  58  CALM    29.90R
#CLE ELUM LAKE  N/A         72  43  35  CALM    29.80R
#CLIFFDEL 2NW   N/A         65  44  46  CALM    N/A
#EASTON DOT     N/A         67  44  43  CALM    N/A
#GLENWOOD       N/A         61  52  72  CALM    29.84R
#MANASTASH CYN  N/A         65  37  35  CALM    30.00R
#NELSON         N/A         63  50  62  CALM    29.85R
#NELSON 3SW     N/A         65  46  50  CALM    30.01S
#NILE           N/A         62  47  58  CALM    29.16R
#PEOH POINT     N/A         70  42  36  W6      N/A
#RONALD 2NW     N/A         68  44  42  NE1     29.88S
#SNOWDEN        N/A         64  30  28  CALM    N/A
#SOUTH BLEWITT  N/A         N/A N/A N/A CALM    N/A
#TEANAWAY 4NE   N/A         64  48  56  NE3     N/A
#TROUT LAKE 1NE N/A         61  52  72  CALM    29.84R
$$

WAZ521-060910-
SIMCOE HIGHLANDS

CITY            SKY/WX      TMP DP  RH  WIND    PRES   REMARKS
#BICKLETON HS   N/A         70  35  28  W3      N/A
#SATUS PASS DOT N/A         64  42  45  CALM    N/A
#GOLDENDALE     N/A         74  43  33  W1      N/A
#GOLDENDALE 5WNWN/A         72  48  43  NW2     29.80S
#GOODNOE HILLS  N/A         84  46  27  W12     N/A
#LYLE 6NE       N/A         76  52  43  S2      29.80R
$$

WAZ026-060910-
KITTITAS VALLEY

CITY            SKY/WX      TMP DP  RH  WIND    PRES   REMARKS
ELLENSBURG AP   CLEAR       68  40  36  SE8     29.95R
YTC-OPS AREA    N/A         73  39  29  NE7     30.00R
#ELLENSBURG CWU N/A         68  43  40  S2      29.80R
#ELLENSBURG 3NE N/A         70  45  41  S1      29.95R
#ELLENSBURG 1E  N/A         63  41  44  CALM    N/A
#KITTITAS 3S    N/A         58  51  77  CALM    29.84R
#THORP 6N       N/A         71  47  42  E3      29.85R
$$

WAZ027-060910-
YAKIMA VALLEY

CITY            SKY/WX      TMP DP  RH  WIND    PRES   REMARKS
SUNNYSIDE AP    CLEAR       64  54  70  CALM    29.87R
YAKIMA AIRPORT  CLEAR       70  46  42  VRB6    29.90R SMOKE
#DONALD 2NE     N/A         77  10   8  CALM    28.74R
#GRANDVIEW      N/A         72  46  39  CALM    29.83R
#MABTON         N/A         71  51  49  CALM    29.85S
#MOXEE 2E       N/A         76  18  11  E2      29.85R
#NACHES 2SW     N/A         70  48  46  NW1     29.93R
#TERRACE HTS    N/A         73  43  34  CALM    29.78R
#TOPPENISH      N/A         72  54  53  SW3     29.74R
#WAPATO 4NE     N/A         77  10   8  CALM    28.74R
#WEST VALLEY    N/A         71  46  41  E1      29.81R
#W YAKIMA       N/A         75  43  32  NW1     29.82R
#WHITE SWAN 5E  N/A         69  50  51  N2      29.81S
#WILEY CITY 3W  N/A         71  35  27  CALM    29.88R
$$

WAZ028-060910-
LOWER COLUMBIA BASIN...WASHINGTON

CITY            SKY/WX      TMP DP  RH  WIND    PRES   REMARKS
HANFORD         CLEAR       78  44  30  NE3     29.82F
PASCO           CLEAR       71  52  51  N3      29.84S
RICHLAND AWOS   CLEAR       73  55  53  W6      29.84S
#BASIN CITY 5SW N/A         73  53  49  E5      29.85R
#BENTON CITY    N/A         78  46  32  CALM    29.72S
#CONNELL 5N     N/A         73  47  40  NE2     29.81R
#CONNELL 5NW    N/A         73  49  43  E3      29.79S
#ELTOPIA 6NW    N/A         74  53  48  E7      28.84S
#KAHLOTUS       N/A         74  48  40  S10     29.81S
#KENNEWICK 3S   N/A         73  57  57  CALM    29.80S
#PATERSON       N/A         77  49  37  CALM    29.79R
#PROSSER DOT    N/A         72  50  46  E1      N/A
#PROSSER        N/A         79  40  25  CALM    29.80S
#SAGEMOOR 2W    N/A         76  53  45  CALM    29.67R
#TOUCHET 2S     N/A         65  54  68  CALM    29.79R
#WEST PASCO     N/A         74  52  46  CALM    29.81S
$$

WAZ029-060910-
FOOTHILLS OF THE BLUES...WASHINGTON

CITY            SKY/WX      TMP DP  RH  WIND    PRES   REMARKS
WALLA WALLA AP  CLEAR       77  48  36  E7      29.87S
#DAYTON SCHOOL  N/A         70  43  38  N2      29.92R
#LOWDEN 2SE     N/A         69  53  57  E1      29.81R
#PLEASANT VIEW 1N/A         74  47  38  N6      29.84R
#PRESCOTT       N/A         74  49  41  CALM    29.78S
#SUDBURY        N/A         68  N/A N/A CALM    N/A
#WAITSBURG 5S   N/A         74  42  32  NE3     29.88R
#WAITSBURG 8N   N/A         71  20  14  N5      29.74R
#WALLA WALLA U  N/A         77  50  39  CALM    29.79
#WHITMAN MISSIONN/A         68  55  63  CALM    29.81R
$$

WAZ030-060910-
BLUE MOUNTAINS...WASHINGTON

CITY            SKY/WX      TMP DP  RH  WIND    PRES   REMARKS
#DIXIE 5SE      N/A          0  -78  1  CALM    29.92S
$$

ORZ009-041-WAZ024-060910-
COLUMBIA RIVER GORGE

CITY            SKY/WX      TMP DP  RH  WIND    PRES   REMARKS
HOOD RIVER AP   CLEAR       72  52  49  CALM    29.89S
THE DALLES AP   CLEAR       83  50  32  W8      29.85R
#ARLINGTON AIRPON/A         84  47  28  W8      29.45S
#ARLINGTON HS   N/A         87  46  24  CALM    29.69R
#CELILO DOT     N/A         85  55  36  S3      N/A
#MARYHILL       N/A         83  43  24  CALM    N/A
#MOSIER 1S      N/A         79  36  21  NW3     29.88R
#MURDOCK        N/A         85  54  35  W14     29.84R
#RUFUS DOT      N/A         92  56  30  SW6     N/A    HX 90

$$

ORZ510-060910-
NORTH CENTRAL OREGON

CITY            SKY/WX      TMP DP  RH  WIND    PRES   REMARKS
#CHENOWITH 1W   N/A         76  49  39  W22     N/A
#COW CYN RST AREN/A         75  N/A N/A NW3     N/A
#DUFUR 9E       N/A         77  47  35  CALM    29.86R
#GRASS VALLEY 1SN/A         70  49  47  CALM    29.84R
#KENT DOT       N/A         70  49  47  W3      N/A
#MAUPIN SCHOOL  N/A         79  48  34  CALM    29.90S
#MORO SCHOOL    N/A         78  53  42  W7      29.93S
#SHANIKO 5WSW   N/A         72  43  35  N6      N/A
#SHANIKO 4NW    N/A         73  42  33  N6      30.05S
#TYGH VALLEY 2NEN/A         75  52  45  CALM    29.82R
#WAPANITIA AIRPON/A         72  46  39  SW1     29.83R
#WASCO DOT      N/A         69  50  51  SE2     N/A
#WASCO 5NE      N/A         73  48  41  CALM    29.80S
$$

ORZ511-060910-
CENTRAL OREGON

CITY            SKY/WX      TMP DP  RH  WIND    PRES   REMARKS
BEND AIRPORT    N/A         N/A N/A N/A MISG    N/A
MADRAS AIRPORT  CLEAR       68  48  49  SE6     30.01R
PRINEVILLE AP   PTCLDY      64  41  43  CALM    30.03S
REDMOND AIRPORT PTCLDY      66  41  40  CALM    30.02S
#BEND 1SW       N/A         65  47  52  CALM    N/A
#BEND-AWBREY    N/A         71  45  39  CALM    29.82S
#BEND-KIM LN    N/A         68  50  53  CALM    30.03S
#CROOKED RVR RANN/A         75  46  36  CALM    29.81S
#CULVER         N/A         69  48  47  CALM    29.96S
#LAKE BILLY CHINN/A         72   8   8  CALM    30.03R
#POWELL BUTTE 3EN/A         70  41  35  S3      N/A
#POWELL BUTTE   N/A         69  44  40  S1      29.67F
#PRINEVILLE 3N  N/A         62  50  65  E1      29.81S
#WARM SPRINGS   N/A         77  49  37  S1      29.91S

$$


ORZ509-060910-
EAST SLOPES OF OREGON CASCADES

CITY            SKY/WX      TMP DP  RH  WIND    PRES   REMARKS
#BLUE BOX PASS  N/A         68  11  11  CALM    N/A
#CAMP SHERMAN   N/A         60  44  55  CALM    29.83S
#LA PINE 4NW    N/A         61  47  60  CALM    29.89F
#SISTERS AIRPOR N/A         67  52  59  N1      30.17S
#SISTERS ODOT   N/A         66  N/A N/A SW6     N/A
#SISTERS 3N     N/A         64  43  46  CALM    30.04S
#SUNRIVER       N/A         65  49  56  CALM    29.73S
#TUMALO 3W      N/A         70  45  41  SW3     29.72R
#WANOGA BUTTE D N/A         69  40  35  NW3     N/A

$$

ORZ044-060910-
LOWER COLUMBIA BASIN...OREGON

CITY            SKY/WX      TMP DP  RH  WIND    PRES   REMARKS
HERMISTON       CLEAR       71  44  38  S6      29.84R
#BOARDMAN SCHOOLN/A         72  48  43  CALM    29.84S
#BOARDMAN 8SW   N/A         72  49  44  E5      29.80R
#ECHO 8SW       N/A         69  45  42  SW2     29.86R
#IONE SCHOOL    N/A         68  41  37  CALM    29.87R
#IRRIGON 4NW    N/A         67  55  65  S3      N/A
#UMATILLA SCHOOLN/A         70  62  76  CALM    29.89R
#UMATILLA       N/A         76  51  42  CALM    29.75R
$$

ORZ507-060910-
NORTHERN FOOTHILLS OF THE BLUES

CITY            SKY/WX      TMP DP  RH  WIND    PRES   REMARKS
PENDLETON AIRPT CLEAR       70  41  35  E9      29.89R
#ADAMS 3WNW     N/A         67  41  39  CALM    29.80R
#ATHENA         N/A         65  45  48  CALM    29.83R
#CAYUSE         N/A         76  47  36  E8      29.79R
#HELIX SCHOOL   N/A         71  45  39  CALM    29.80R
#HELIX 3N       N/A         73  42  33  E7      29.89R
#HELIX 6SW      N/A         71  43  36  NE7     29.89
#HOLDMAN 6E     N/A         69  46  44  SW2     29.62R
#M-F GROVE ELEM N/A         72  41  33  CALM    29.87R
#M-FREEWATER 5SEN/A         75  49  40  CALM    29.89R
#PENDLETON DNTN N/A         73  41  31  NE3     29.84S
#PDT AQUATIC CTRN/A         73  41  31  E5      29.92S
#PDT SUNRIDGE   N/A         73  46  38  CALM    29.89R
#PENDLETON 7NW  N/A         70  43  38  E2      N/A
#PILOT ROCK     N/A         75  41  29  S6      29.94R
#TUTUILLA       N/A         65  42  43  CALM    29.83R
#UMAPINE 2E     N/A         67  50  54  CALM    29.82R
#WESTON SCHOOL  N/A         74  40  29  NE1     29.79R

$$

ORZ508-060910-
SOUTHERN FOOTHILLS OF THE BLUES

CITY            SKY/WX      TMP DP  RH  WIND    PRES   REMARKS
#AJAX           N/A         77  40  26  SW2     29.90R
#CONDON SCHOOL  N/A         73  47  40  S1      29.96R
#CONDON 5W      N/A         72  45  38  NW6     30.00R
#FOSSIL SCHOOL  N/A         64  37  37  CALM    29.95R
#HEPPNER EOC    N/A         72  42  34  SE8     29.76R
#HEPPNER 4NE    N/A         69  38  32  E2      29.81R
#LEXINGTON 2SE  N/A         73  42  33  SE1     29.88S
#RUGGS 5NE      N/A         67  36  32  CALM    30.17R
#RUGGS 2SW      N/A         72  38  29  SW7     29.83R

$$

ORZ502-503-060910-
BLUE MOUNTAINS

CITY            SKY/WX      TMP DP  RH  WIND    PRES   REMARKS
MEACHAM         CLEAR       53  46  77  CALM    30.05S
#BATTLE MTN DOT N/A         64  51  63  S2      N/A
#HEPPNER 15SE   N/A         60  40  47  CALM    29.99R
#LONG CREEK HS  N/A         62  42  48  CALM    30.01R
#N POWDER DOT   N/A         57  49  75  W2      N/A
#PIKES PEAK     N/A         77  44  31  SE5     27.99S
#TOLLGATE       N/A         59  42  53  CALM    30.04S
#TROY SCHOOL    N/A         73  53  49  CALM    29.69R
#UKIAH          N/A         56  46  69  CALM    29.91R
#WESTON 4E      N/A         72  41  33  E6      29.75S
$$

ORZ505-060910-
JOHN DAY BASIN

CITY            SKY/WX      TMP DP  RH  WIND    PRES   REMARKS
JOHN DAY        PTCLDY      67  46  47  SE3     30.05R
#JOHN DAY KJDY  N/A         66  62  87  CALM    30.05R
#DAYVILLE SCHOOLN/A         75  32  21  N2      29.95S
#MITCHELL       N/A         66  40  38  E5      30.17R
#MONUMENT HS    N/A         67  38  34  CALM    29.96R
#MT. VERNON 5SE N/A         68  41  37  CALM    30.02R
#WINLOCK        N/A         65  37  35  CALM    30.08R
$$

ORZ506-060910-
OCHOCO AND JOHN DAY HIGHLANDS

CITY            SKY/WX      TMP DP  RH  WIND    PRES   REMARKS
#BUCK CREEK DOT N/A         67  67  100 SW9     N/A
#HORSE RIDGE DO N/A         69  41  36  SW1     N/A
#KEYES SMT DOT  N/A         71  33  25  SE5     N/A
#PAULINA SCHOOL N/A         72  46  39  CALM    30.03S
#PINE MTN OBS   N/A         63  44  50  NW3     N/A
#PRAIRIE CITY   N/A         58  46  64  CALM    30.00R
#SENECA         N/A         64  N/A N/A CALM    N/A
#SENECA 9NW     N/A         59  43  55  CALM    29.85S
$$

ORZ049-060910-
GRANDE RONDE VALLEY

CITY            SKY/WX      TMP DP  RH  WIND    PRES   REMARKS
LA GRANDE       CLEAR       64  39  40  CALM    29.99R
#COVE           N/A         63  48  58  VRB1    30.00R
#ELGIN 3N       N/A         62  42  48  CALM    29.98R
#ELGIN 1E       N/A         62  47  58  CALM    N/A
#IMBLER SCHOOL  N/A         72  46  39  N2      29.95R
#ISLAND CITY 4N N/A         64  58  81  CALM    29.91R
#LADD CYN DOT   N/A         69  44  40  SE14    N/A
#UNION 1S       N/A         63  47  56  CALM    29.73R
$$

ORZ050-060910-
WALLOWA COUNTY

CITY            SKY/WX      TMP DP  RH  WIND    PRES   REMARKS
#IMNAHA SCHOOL  N/A         75  48  38  S2      29.93R
#IMNAHA 10S     N/A         76  51  42  SW3     30.01S
#JOSEPH 3N      N/A         56  45  66  CALM    30.08S
#JOSEPH 3W      N/A         62  46  56  SW3     29.94R
#LOSTINE        N/A         62  46  56  CALM    29.66R
#MT HOWARD 8000 N/A         57  41  55  CALM    30.33S
#PROMISE 1S     N/A         63  47  56  CALM    29.94R
#WALLOWA SCHOOL N/A         60  49  67  CALM    29.98R



$$



USA.gov is the U.S. government's official web portal to all federal, state and local government web resources and services.